Weather History for Waco, TX

Change the Weather History Date:

Thursday, August 30, 2012

  Actual Average Record
Temperature  
Mean Temperature 87 °F 83 °F  
Max Temperature 99 °F 95 °F 106 °F (1954)
Min Temperature 74 °F 72 °F 57 °F (1986)
Degree Days  
Heating Degree Days 0 0  
Month to date heating degree days 0 0  
Since 1 June heating degree days 0 0  
Since 1 July heating degree days 0 0  
Cooling Degree Days 22 18  
Month to date cooling degree days 653 609  
Year to date cooling degree days 2565 2175  
Since 1 June cooling degree days 1900 1723  
Growing Degree Days 36 (Base 50)    
Moisture  
Dew Point 62 °F    
Average Humidity 47    
Maximum Humidity 65    
Minimum Humidity 29    
Precipitation  
Precipitation 0.00 in 0.09 in 1.94 in (1995)
Month to date precipitation 1.68 1.96  
Year to date precipitation 26.84 22.07  
Sea Level Pressure  
Sea Level Pressure 29.73 in    
Wind  
Wind Speed 9 mph (NNW)    
Max Wind Speed 23 mph    
Max Gust Speed 29 mph    
Visibility 10 miles    
Events      
T = Trace of Precipitation, MM = Missing Value Source: NWS Daily Summary

Daily Weather History Graph

Daily Weather History Graph

Search for Another Location

Airport:

Trip Planner

Search our weather history database for the weather conditions in past years. The results will help you decide how hot, cold, wet, or windy it might be!

Date:

Astronomy

Aug. 30, 2012 Rise Set
Actual Time 7:03 AM CDT 7:54 PM CDT
Civil Twilight 6:38 AM CDT 8:19 PM CDT
Nautical Twilight 6:09 AM CDT 8:48 PM CDT
Astronomical Twilight 5:39 AM CDT 9:18 PM CDT
Moon 7:11 PM CDT (8/30) 6:06 AM CDT (8/30)
Length of Visible Light 13h 40m
Length of Day
12h 50m
Waxing Gibbous, 99% of the Moon is Illuminated
Aug 30
Waxing Gibbous
Aug 31
Full
Sep 8
Last Quarter
Sep 15
New
Sep 22
First Quarter

Hourly Weather History & Observations

Time (CDT) Temp. Heat Index Dew Point Humidity Pressure Visibility Wind Dir Wind Speed Gust Speed Precip Events Conditions
12:51 AM 79.0 °F - 62.1 °F 56% 29.76 in 10.0 mi NNW 8.1 mph - N/A   Clear
1:51 AM 78.1 °F - 61.0 °F 56% 29.78 in 10.0 mi NNW 6.9 mph - N/A   Clear
2:51 AM 78.1 °F - 61.0 °F 56% 29.75 in 10.0 mi NNW 8.1 mph - N/A   Clear
3:51 AM 75.9 °F - 61.0 °F 60% 29.75 in 10.0 mi NNW 8.1 mph - N/A   Scattered Clouds
4:51 AM 75.0 °F - 60.1 °F 60% 29.74 in 10.0 mi NNW 8.1 mph - N/A   Clear
5:51 AM 75.0 °F - 60.1 °F 60% 29.75 in 10.0 mi NNW 8.1 mph - N/A   Clear
6:51 AM 73.9 °F - 61.0 °F 64% 29.75 in 10.0 mi NNW 6.9 mph - N/A   Clear
7:51 AM 75.9 °F - 61.0 °F 60% 29.77 in 10.0 mi North 8.1 mph - N/A   Clear
8:51 AM 81.0 °F 81.9 °F 62.1 °F 52% 29.78 in 10.0 mi North 10.4 mph - N/A   Clear
9:51 AM 84.9 °F 86.6 °F 64.9 °F 51% 29.78 in 10.0 mi North 13.8 mph - N/A   Clear
10:51 AM 90.0 °F 91.7 °F 64.9 °F 43% 29.77 in 10.0 mi North 12.7 mph - N/A   Clear
11:51 AM 93.0 °F 94.2 °F 63.0 °F 37% 29.75 in 10.0 mi North 17.3 mph 25.3 mph N/A   Clear
12:51 PM 96.1 °F 96.4 °F 61.0 °F 31% 29.73 in 10.0 mi North 19.6 mph 26.5 mph N/A   Clear
1:51 PM 97.0 °F 97.4 °F 61.0 °F 30% 29.72 in 10.0 mi North 17.3 mph 25.3 mph N/A   Clear
2:51 PM 97.0 °F 97.4 °F 61.0 °F 30% 29.70 in 10.0 mi North 17.3 mph 25.3 mph N/A   Clear
3:51 PM 98.1 °F 98.6 °F 61.0 °F 29% 29.68 in 10.0 mi North 16.1 mph 26.5 mph N/A   Clear
4:51 PM 98.1 °F 99.1 °F 62.1 °F 30% 29.67 in 10.0 mi North 11.5 mph 19.6 mph N/A   Clear
5:51 PM 97.0 °F 97.4 °F 61.0 °F 30% 29.67 in 10.0 mi NNW 13.8 mph 21.9 mph N/A   Clear
6:51 PM 95.0 °F 95.2 °F 61.0 °F 32% 29.68 in 10.0 mi NNW 8.1 mph 18.4 mph N/A   Clear
7:51 PM 91.0 °F 91.5 °F 62.1 °F 38% 29.68 in 10.0 mi NNW 6.9 mph - N/A   Clear
8:51 PM 88.0 °F 88.7 °F 63.0 °F 43% 29.71 in 10.0 mi NNW 3.5 mph - N/A   Clear
9:51 PM 81.0 °F 82.7 °F 64.9 °F 58% 29.74 in 10.0 mi Calm Calm - N/A   Partly Cloudy
10:51 PM 82.0 °F 85.5 °F 69.1 °F 65% 29.75 in 10.0 mi Calm Calm - N/A   Overcast
11:51 PM 81.0 °F 82.7 °F 64.9 °F 58% 29.76 in 10.0 mi Calm Calm - N/A   Clear